Time,TemperatureF,DewpointF,PressureIn,WindDirection,WindDirectionDegrees,WindSpeedMPH,WindSpeedGustMPH,Humidity,HourlyPrecipIn,Conditions,Clouds,dailyrainin,SoftwareType,DateUTC
2013-10-11 00:01:00,65.5,60.5,29.80,NW,305,2.2,4.0,84,0.08,,---,0.00,VWS V14.01,2013-10-11 04:01:00,
2013-10-11 00:06:00,65.5,60.5,29.80,NW,310,0.0,2.2,84,0.08,,---,0.00,VWS V14.01,2013-10-11 04:06:00,
2013-10-11 00:11:00,65.5,60.2,29.80,SSW,212,0.0,3.6,83,0.12,,---,0.04,VWS V14.01,2013-10-11 04:11:00,
2013-10-11 00:16:00,65.5,60.2,29.80,North,353,6.3,8.7,83,0.12,,---,0.04,VWS V14.01,2013-10-11 04:16:00,
2013-10-11 00:21:00,65.3,60.0,29.80,NNW,329,0.0,3.1,83,0.16,,---,0.08,VWS V14.01,2013-10-11 04:21:00,
2013-10-11 00:26:00,65.3,60.0,29.80,NW,325,5.4,5.4,83,0.08,,---,0.08,VWS V14.01,2013-10-11 04:26:00,
2013-10-11 00:31:00,65.3,60.0,29.80,WSW,247,3.6,4.0,83,0.08,,---,0.08,VWS V14.01,2013-10-11 04:31:00,
2013-10-11 00:36:00,65.3,60.0,29.80,West,279,0.0,6.3,83,0.12,,---,0.12,VWS V14.01,2013-10-11 04:36:00,
2013-10-11 00:41:00,65.3,59.7,29.80,West,275,3.6,3.6,82,0.12,,---,0.12,VWS V14.01,2013-10-11 04:41:00,
2013-10-11 00:46:00,65.3,59.7,29.80,North,357,3.1,3.1,82,0.12,,---,0.12,VWS V14.01,2013-10-11 04:46:00,
2013-10-11 00:51:00,65.1,59.5,29.80,NE,38,5.8,5.8,82,0.12,,---,0.12,VWS V14.01,2013-10-11 04:51:00,
2013-10-11 00:56:00,65.1,59.5,29.77,SW,235,5.4,5.4,82,0.12,,---,0.12,VWS V14.01,2013-10-11 04:56:00,
2013-10-11 01:01:00,65.1,59.5,29.77,NNW,346,0.0,0.0,82,0.16,,---,0.16,VWS V14.01,2013-10-11 05:01:00,
2013-10-11 01:06:00,65.1,59.5,29.77,WNW,297,2.7,4.9,82,0.16,,---,0.16,VWS V14.01,2013-10-11 05:06:00,
2013-10-11 01:11:00,65.1,59.5,29.80,NNW,328,3.6,3.6,82,0.12,,---,0.16,VWS V14.01,2013-10-11 05:11:00,
2013-10-11 01:16:00,65.1,59.8,29.80,NNE,33,0.0,3.6,83,0.12,,---,0.16,VWS V14.01,2013-10-11 05:16:00,
2013-10-11 01:21:00,65.1,59.8,29.80,NNW,334,2.2,6.3,83,0.16,,---,0.20,VWS V14.01,2013-10-11 05:21:00,
2013-10-11 01:26:00,65.1,59.8,29.77,SE,133,0.0,3.1,83,0.16,,---,0.24,VWS V14.01,2013-10-11 05:26:00,
2013-10-11 01:31:00,65.1,59.8,29.77,NNE,17,0.0,3.6,83,0.16,,---,0.24,VWS V14.01,2013-10-11 05:31:00,
2013-10-11 01:36:00,65.1,60.2,29.77,North,5,2.2,3.1,84,0.16,,---,0.28,VWS V14.01,2013-10-11 05:36:00,
2013-10-11 01:41:00,65.1,60.2,29.77,NNE,27,4.9,4.9,84,0.16,,---,0.28,VWS V14.01,2013-10-11 05:41:00,
2013-10-11 01:46:00,65.1,60.2,29.77,NE,45,5.4,8.3,84,0.16,,---,0.28,VWS V14.01,2013-10-11 05:46:00,
2013-10-11 01:51:00,65.1,60.2,29.77,ENE,78,3.1,4.0,84,0.16,,---,0.28,VWS V14.01,2013-10-11 05:51:00,
2013-10-11 01:56:00,65.1,60.2,29.77,North,353,2.7,4.9,84,0.16,,---,0.28,VWS V14.01,2013-10-11 05:56:00,
2013-10-11 02:01:00,65.1,60.2,29.77,NNW,333,0.0,0.0,84,0.16,,---,0.31,VWS V14.01,2013-10-11 06:01:00,
2013-10-11 02:06:00,65.1,60.2,29.77,NE,55,2.2,2.7,84,0.16,,---,0.31,VWS V14.01,2013-10-11 06:06:00,
2013-10-11 02:11:00,65.1,60.2,29.77,NNW,333,5.8,5.8,84,0.16,,---,0.31,VWS V14.01,2013-10-11 06:11:00,
2013-10-11 02:16:00,65.1,60.2,29.77,SW,223,0.0,3.1,84,0.16,,---,0.31,VWS V14.01,2013-10-11 06:16:00,
2013-10-11 02:21:00,65.1,60.2,29.77,WSW,250,3.1,4.5,84,0.12,,---,0.31,VWS V14.01,2013-10-11 06:21:00,
2013-10-11 02:26:00,65.1,60.2,29.77,North,357,3.6,4.0,84,0.12,,---,0.35,VWS V14.01,2013-10-11 06:26:00,
2013-10-11 02:32:00,65.1,60.5,29.77,North,6,2.2,8.1,85,0.12,,---,0.35,VWS V14.01,2013-10-11 06:32:00,
2013-10-11 02:37:00,65.1,60.5,29.77,NW,318,2.7,6.3,85,0.08,,---,0.35,VWS V14.01,2013-10-11 06:37:00,
2013-10-11 02:42:00,65.1,60.5,29.77,NNW,328,0.0,0.0,85,0.08,,---,0.35,VWS V14.01,2013-10-11 06:42:00,
2013-10-11 02:47:00,65.1,60.5,29.77,SW,227,3.6,4.9,85,0.08,,---,0.35,VWS V14.01,2013-10-11 06:47:00,
2013-10-11 02:52:00,65.1,60.5,29.77,WSW,246,0.0,0.0,85,0.08,,---,0.35,VWS V14.01,2013-10-11 06:52:00,
2013-10-11 02:57:00,65.1,60.5,29.77,NW,308,5.4,5.4,85,0.08,,---,0.35,VWS V14.01,2013-10-11 06:57:00,
2013-10-11 03:02:00,65.1,60.5,29.77,SSW,209,0.0,0.0,85,0.04,,---,0.35,VWS V14.01,2013-10-11 07:02:00,
2013-10-11 03:07:00,65.1,60.5,29.77,NNE,24,0.0,0.0,85,0.08,,---,0.39,VWS V14.01,2013-10-11 07:07:00,
2013-10-11 03:12:00,65.1,60.5,29.77,NNE,18,3.6,4.0,85,0.08,,---,0.39,VWS V14.01,2013-10-11 07:12:00,
2013-10-11 03:17:00,65.1,60.5,29.77,NE,36,3.1,3.1,85,0.08,,---,0.39,VWS V14.01,2013-10-11 07:17:00,
2013-10-11 03:22:00,65.1,60.2,29.77,NNE,15,2.7,3.1,84,0.08,,---,0.39,VWS V14.01,2013-10-11 07:22:00,
2013-10-11 03:27:00,65.1,60.2,29.77,North,0,4.0,4.0,84,0.04,,---,0.39,VWS V14.01,2013-10-11 07:27:00,
2013-10-11 03:32:00,65.1,60.2,29.77,SSW,206,3.1,3.1,84,0.04,,---,0.39,VWS V14.01,2013-10-11 07:32:00,
2013-10-11 03:37:00,65.1,60.2,29.77,NE,43,2.2,4.0,84,0.04,,---,0.39,VWS V14.01,2013-10-11 07:37:00,
2013-10-11 03:42:00,65.1,60.2,29.74,WNW,295,0.0,2.7,84,0.04,,---,0.39,VWS V14.01,2013-10-11 07:42:00,
2013-10-11 03:47:00,64.9,60.0,29.74,West,260,3.1,4.0,84,0.04,,---,0.39,VWS V14.01,2013-10-11 07:47:00,
2013-10-11 03:52:00,65.1,60.2,29.77,North,357,0.0,0.0,84,0.04,,---,0.39,VWS V14.01,2013-10-11 07:52:00,
2013-10-11 03:57:00,64.9,60.0,29.77,NW,311,0.0,5.8,84,0.04,,---,0.39,VWS V14.01,2013-10-11 07:57:00,
2013-10-11 04:02:00,64.9,60.3,29.77,NNW,345,0.0,3.6,85,0.04,,---,0.39,VWS V14.01,2013-10-11 08:02:00,
2013-10-11 04:07:00,64.9,60.3,29.77,WSW,246,2.2,4.0,85,0.00,,---,0.39,VWS V14.01,2013-10-11 08:07:00,
2013-10-11 04:12:00,64.9,60.3,29.77,NNE,32,4.9,4.9,85,0.00,,---,0.39,VWS V14.01,2013-10-11 08:12:00,
2013-10-11 04:17:00,64.9,60.3,29.77,North,353,2.2,3.1,85,0.00,,---,0.39,VWS V14.01,2013-10-11 08:17:00,
2013-10-11 04:22:00,64.9,60.3,29.77,NW,310,0.0,0.0,85,0.00,,---,0.39,VWS V14.01,2013-10-11 08:22:00,
2013-10-11 04:27:00,65.1,60.5,29.74,North,353,0.0,0.0,85,0.00,,---,0.39,VWS V14.01,2013-10-11 08:27:00,
2013-10-11 04:32:00,65.1,60.8,29.74,North,11,8.3,8.3,86,0.00,,---,0.39,VWS V14.01,2013-10-11 08:32:00,
2013-10-11 04:37:00,65.1,60.8,29.74,WSW,256,3.6,3.6,86,0.00,,---,0.39,VWS V14.01,2013-10-11 08:37:00,
2013-10-11 04:42:00,65.1,60.8,29.74,WNW,292,5.4,5.4,86,0.00,,---,0.39,VWS V14.01,2013-10-11 08:42:00,
2013-10-11 04:47:00,65.1,60.8,29.74,WNW,299,3.1,4.0,86,0.00,,---,0.39,VWS V14.01,2013-10-11 08:47:00,
2013-10-11 04:52:00,65.3,61.0,29.74,SW,216,3.6,3.6,86,0.00,,---,0.39,VWS V14.01,2013-10-11 08:52:00,
2013-10-11 04:57:00,65.3,61.0,29.77,NNE,32,5.4,5.4,86,0.00,,---,0.39,VWS V14.01,2013-10-11 08:57:00,
2013-10-11 05:02:00,65.5,61.2,29.77,ENE,69,0.0,5.8,86,0.00,,---,0.39,VWS V14.01,2013-10-11 09:02:00,
2013-10-11 05:07:00,65.5,61.2,29.77,NW,325,0.0,2.7,86,0.00,,---,0.39,VWS V14.01,2013-10-11 09:07:00,
2013-10-11 05:12:00,65.5,61.2,29.77,North,357,3.1,3.6,86,0.00,,---,0.39,VWS V14.01,2013-10-11 09:12:00,
2013-10-11 05:17:00,65.5,61.2,29.77,WSW,249,2.2,3.6,86,0.00,,---,0.39,VWS V14.01,2013-10-11 09:17:00,
2013-10-11 05:22:00,65.7,61.4,29.77,WSW,250,4.0,4.0,86,0.00,,---,0.39,VWS V14.01,2013-10-11 09:22:00,
2013-10-11 05:27:00,65.7,61.4,29.77,WNW,293,5.4,5.4,86,0.00,,---,0.39,VWS V14.01,2013-10-11 09:27:00,
2013-10-11 05:32:00,65.7,61.0,29.77,NW,310,3.6,7.2,85,0.00,,---,0.39,VWS V14.01,2013-10-11 09:32:00,
2013-10-11 05:37:00,65.7,61.0,29.77,North,0,0.0,7.2,85,0.00,,---,0.39,VWS V14.01,2013-10-11 09:37:00,
2013-10-11 05:42:00,65.8,61.2,29.77,WNW,292,3.1,4.0,85,0.04,,---,0.43,VWS V14.01,2013-10-11 09:42:00,
2013-10-11 05:47:00,65.8,61.2,29.77,NW,312,2.7,4.0,85,0.04,,---,0.43,VWS V14.01,2013-10-11 09:47:00,
2013-10-11 05:52:00,65.8,61.5,29.77,SSE,149,3.6,4.9,86,0.04,,---,0.43,VWS V14.01,2013-10-11 09:52:00,
2013-10-11 05:57:00,65.8,61.5,29.77,NNW,348,5.4,5.4,86,0.04,,---,0.43,VWS V14.01,2013-10-11 09:57:00,
2013-10-11 06:02:00,66.0,61.7,29.77,North,353,5.8,5.8,86,0.04,,---,0.43,VWS V14.01,2013-10-11 10:02:00,
2013-10-11 06:07:00,66.0,61.7,29.77,NNW,340,0.0,2.2,86,0.04,,---,0.43,VWS V14.01,2013-10-11 10:07:00,
2013-10-11 06:12:00,66.0,61.4,29.77,North,357,2.7,7.6,85,0.04,,---,0.43,VWS V14.01,2013-10-11 10:12:00,
2013-10-11 06:17:00,66.0,61.4,29.77,North,2,3.1,3.6,85,0.04,,---,0.43,VWS V14.01,2013-10-11 10:17:00,
2013-10-11 06:22:00,66.2,61.6,29.77,North,349,4.0,4.0,85,0.08,,---,0.47,VWS V14.01,2013-10-11 10:22:00,
2013-10-11 06:27:00,66.2,61.2,29.77,WNW,287,3.6,4.0,84,0.08,,---,0.47,VWS V14.01,2013-10-11 10:27:00,
2013-10-11 06:32:00,66.2,61.2,29.77,West,261,8.1,8.1,84,0.12,,---,0.51,VWS V14.01,2013-10-11 10:32:00,
2013-10-11 06:37:00,66.2,61.2,29.77,North,353,3.6,4.0,84,0.16,,---,0.55,VWS V14.01,2013-10-11 10:37:00,
2013-10-11 06:42:00,66.2,61.2,29.77,SW,229,4.0,4.9,84,0.12,,---,0.55,VWS V14.01,2013-10-11 10:42:00,
2013-10-11 06:47:00,66.2,61.2,29.77,NNW,331,4.9,6.3,84,0.12,,---,0.55,VWS V14.01,2013-10-11 10:47:00,
2013-10-11 06:52:00,66.2,61.2,29.77,NW,324,2.7,4.9,84,0.12,,---,0.55,VWS V14.01,2013-10-11 10:52:00,
2013-10-11 06:57:00,66.2,61.2,29.77,NW,315,4.0,4.0,84,0.16,,---,0.59,VWS V14.01,2013-10-11 10:57:00,
2013-10-11 07:02:00,66.4,61.1,29.77,SE,142,3.1,5.4,83,0.16,,---,0.59,VWS V14.01,2013-10-11 11:02:00,
2013-10-11 07:07:00,66.4,61.4,29.77,WNW,303,0.0,4.5,84,0.16,,---,0.59,VWS V14.01,2013-10-11 11:07:00,
2013-10-11 07:12:00,66.4,61.4,29.77,NNE,21,3.1,6.3,84,0.16,,---,0.59,VWS V14.01,2013-10-11 11:12:00,
2013-10-11 07:17:00,66.4,61.4,29.77,NNW,339,2.7,8.3,84,0.16,,---,0.59,VWS V14.01,2013-10-11 11:17:00,
2013-10-11 07:22:00,66.4,61.4,29.77,West,263,3.6,3.6,84,0.12,,---,0.59,VWS V14.01,2013-10-11 11:22:00,
2013-10-11 07:27:00,66.4,61.4,29.77,SW,216,2.7,7.2,84,0.12,,---,0.59,VWS V14.01,2013-10-11 11:27:00,
2013-10-11 07:32:00,66.4,61.4,29.77,WSW,256,0.0,4.0,84,0.08,,---,0.59,VWS V14.01,2013-10-11 11:32:00,
2013-10-11 07:37:00,66.4,61.4,29.77,SW,227,5.8,8.3,84,0.04,,---,0.59,VWS V14.01,2013-10-11 11:37:00,
2013-10-11 07:42:00,66.4,61.4,29.77,NW,319,2.7,3.1,84,0.04,,---,0.59,VWS V14.01,2013-10-11 11:42:00,
2013-10-11 07:47:00,66.4,61.7,29.77,NW,314,4.0,4.0,85,0.04,,---,0.59,VWS V14.01,2013-10-11 11:47:00,
2013-10-11 07:52:00,66.4,61.7,29.77,SW,224,2.7,8.1,85,0.04,,---,0.59,VWS V14.01,2013-10-11 11:52:00,
2013-10-11 07:57:00,66.4,61.7,29.77,ENE,76,5.4,5.8,85,0.04,,---,0.63,VWS V14.01,2013-10-11 11:57:00,
2013-10-11 08:02:00,66.4,61.7,29.77,NNW,345,3.6,3.6,85,0.04,,---,0.63,VWS V14.01,2013-10-11 12:02:00,
2013-10-11 08:07:00,66.6,61.9,29.77,WNW,294,5.4,6.3,85,0.04,,---,0.63,VWS V14.01,2013-10-11 12:07:00,
2013-10-11 08:12:00,66.6,61.9,29.77,NE,56,0.0,3.1,85,0.04,,---,0.63,VWS V14.01,2013-10-11 12:12:00,
2013-10-11 08:17:00,66.6,61.9,29.77,NW,305,5.8,5.8,85,0.04,,---,0.63,VWS V14.01,2013-10-11 12:17:00,
2013-10-11 08:22:00,66.6,62.2,29.77,WSW,251,3.1,4.0,86,0.04,,---,0.63,VWS V14.01,2013-10-11 12:22:00,
2013-10-11 08:27:00,66.6,62.2,29.77,North,353,0.0,0.0,86,0.04,,---,0.63,VWS V14.01,2013-10-11 12:27:00,
2013-10-11 08:32:00,66.6,61.9,29.77,North,353,3.1,3.1,85,0.04,,---,0.63,VWS V14.01,2013-10-11 12:32:00,
2013-10-11 08:37:00,66.6,61.9,29.77,West,260,3.6,6.7,85,0.04,,---,0.63,VWS V14.01,2013-10-11 12:37:00,
2013-10-11 08:42:00,66.6,61.9,29.77,NNE,15,2.2,2.2,85,0.04,,---,0.63,VWS V14.01,2013-10-11 12:42:00,
2013-10-11 08:47:00,66.6,61.9,29.77,NNE,27,0.0,4.5,85,0.04,,---,0.63,VWS V14.01,2013-10-11 12:47:00,
2013-10-11 08:52:00,66.6,61.6,29.77,West,265,4.0,4.0,84,0.04,,---,0.63,VWS V14.01,2013-10-11 12:52:00,
2013-10-11 08:57:00,66.6,61.6,29.77,NE,35,3.1,4.0,84,0.00,,---,0.63,VWS V14.01,2013-10-11 12:57:00,
2013-10-11 09:02:00,66.6,61.6,29.77,SW,230,0.0,3.1,84,0.00,,---,0.63,VWS V14.01,2013-10-11 13:02:00,
2013-10-11 09:07:00,66.6,61.2,29.77,WSW,248,0.0,2.2,83,0.00,,---,0.63,VWS V14.01,2013-10-11 13:07:00,
2013-10-11 09:12:00,66.6,61.2,29.80,North,350,2.7,5.4,83,0.00,,---,0.63,VWS V14.01,2013-10-11 13:12:00,
2013-10-11 09:17:00,66.6,60.9,29.80,SSE,159,0.0,0.0,82,0.00,,---,0.63,VWS V14.01,2013-10-11 13:17:00,
2013-10-11 09:22:00,66.6,60.9,29.80,SW,221,0.0,3.6,82,0.00,,---,0.63,VWS V14.01,2013-10-11 13:22:00,
2013-10-11 09:27:00,66.4,60.7,29.80,NW,314,3.1,3.1,82,0.00,,---,0.63,VWS V14.01,2013-10-11 13:27:00,
2013-10-11 09:32:00,66.4,60.7,29.80,SW,215,2.7,2.7,82,0.00,,---,0.63,VWS V14.01,2013-10-11 13:32:00,
2013-10-11 09:37:00,66.4,60.7,29.80,West,268,4.0,4.0,82,0.00,,---,0.63,VWS V14.01,2013-10-11 13:37:00,
2013-10-11 09:42:00,66.4,60.7,29.80,NNE,15,0.0,0.0,82,0.00,,---,0.63,VWS V14.01,2013-10-11 13:42:00,
2013-10-11 09:47:00,66.4,60.4,29.80,NNE,19,0.0,3.1,81,0.00,,---,0.63,VWS V14.01,2013-10-11 13:47:00,
2013-10-11 09:52:00,66.4,60.4,29.80,West,260,2.7,5.4,81,0.00,,---,0.63,VWS V14.01,2013-10-11 13:52:00,
2013-10-11 09:57:00,66.4,60.4,29.80,WSW,245,0.0,0.0,81,0.00,,---,0.63,VWS V14.01,2013-10-11 13:57:00,
2013-10-11 10:02:00,66.4,60.7,29.80,ENE,67,2.7,2.7,82,0.00,,---,0.63,VWS V14.01,2013-10-11 14:02:00,
2013-10-11 10:07:00,66.4,60.7,29.80,NW,326,3.6,4.0,82,0.00,,---,0.63,VWS V14.01,2013-10-11 14:07:00,
2013-10-11 10:12:00,66.4,60.7,29.80,NNE,20,3.6,6.3,82,0.00,,---,0.63,VWS V14.01,2013-10-11 14:12:00,
2013-10-11 10:17:00,66.4,60.7,29.80,North,11,4.9,4.9,82,0.00,,---,0.63,VWS V14.01,2013-10-11 14:17:00,
2013-10-11 10:22:00,66.4,61.1,29.80,NNE,24,3.6,3.6,83,0.04,,---,0.67,VWS V14.01,2013-10-11 14:22:00,
2013-10-11 10:27:00,66.4,61.1,29.80,West,262,2.7,3.1,83,0.04,,---,0.67,VWS V14.01,2013-10-11 14:27:00,
2013-10-11 10:32:00,66.4,61.1,29.80,NW,326,0.0,4.0,83,0.04,,---,0.67,VWS V14.01,2013-10-11 14:32:00,
2013-10-11 10:37:00,66.4,61.1,29.80,NNE,22,3.1,3.1,83,0.04,,---,0.67,VWS V14.01,2013-10-11 14:37:00,
2013-10-11 10:42:00,66.4,61.1,29.80,NW,326,0.0,0.0,83,0.08,,---,0.71,VWS V14.01,2013-10-11 14:42:00,
2013-10-11 10:47:00,66.4,60.7,29.80,WSW,243,3.1,3.1,82,0.16,,---,0.79,VWS V14.01,2013-10-11 14:47:00,
2013-10-11 10:52:00,66.4,60.7,29.80,East,87,2.7,2.7,82,0.20,,---,0.83,VWS V14.01,2013-10-11 14:52:00,
2013-10-11 10:57:00,66.2,60.5,29.80,North,357,0.0,0.0,82,0.20,,---,0.83,VWS V14.01,2013-10-11 14:57:00,
2013-10-11 11:02:00,66.2,60.5,29.80,SW,232,4.0,5.8,82,0.24,,---,0.87,VWS V14.01,2013-10-11 15:02:00,
2013-10-11 11:07:00,66.2,60.5,29.80,WNW,287,2.2,2.2,82,0.28,,---,0.91,VWS V14.01,2013-10-11 15:07:00,
2013-10-11 11:12:00,66.2,60.9,29.80,WNW,296,7.6,7.6,83,0.28,,---,0.91,VWS V14.01,2013-10-11 15:12:00,
2013-10-11 11:17:00,66.2,60.9,29.80,NW,325,3.6,3.6,83,0.28,,---,0.91,VWS V14.01,2013-10-11 15:17:00,
2013-10-11 11:22:00,66.4,61.1,29.80,North,353,2.2,3.1,83,0.24,,---,0.91,VWS V14.01,2013-10-11 15:22:00,
2013-10-11 11:27:00,66.4,60.7,29.80,East,84,5.8,6.3,82,0.24,,---,0.91,VWS V14.01,2013-10-11 15:27:00,
2013-10-11 11:32:00,66.4,60.7,29.80,NNW,345,0.0,3.6,82,0.24,,---,0.91,VWS V14.01,2013-10-11 15:32:00,
2013-10-11 11:37:00,66.6,60.9,29.80,NW,311,0.0,0.0,82,0.24,,---,0.91,VWS V14.01,2013-10-11 15:37:00,
2013-10-11 11:42:00,66.6,60.9,29.80,North,353,4.0,5.8,82,0.24,,---,0.94,VWS V14.01,2013-10-11 15:42:00,
2013-10-11 11:47:00,66.7,61.1,29.80,NNE,32,0.0,0.0,82,0.20,,---,0.98,VWS V14.01,2013-10-11 15:47:00,
2013-10-11 11:52:00,66.7,61.1,29.80,NNE,22,0.0,3.1,82,0.20,,---,0.98,VWS V14.01,2013-10-11 15:52:00,
2013-10-11 11:57:00,66.9,61.2,29.80,WNW,285,4.9,4.9,82,0.20,,---,1.02,VWS V14.01,2013-10-11 15:57:00,
2013-10-11 12:02:00,66.9,60.9,29.80,NW,304,0.0,3.1,81,0.16,,---,1.02,VWS V14.01,2013-10-11 16:02:00,
2013-10-11 12:07:00,66.9,60.9,29.80,WSW,245,0.0,0.0,81,0.12,,---,1.02,VWS V14.01,2013-10-11 16:07:00,
2013-10-11 12:12:00,67.1,60.7,29.80,NE,54,3.1,3.1,80,0.12,,---,1.02,VWS V14.01,2013-10-11 16:12:00,
2013-10-11 12:17:00,67.1,60.7,29.80,South,184,2.7,8.1,80,0.12,,---,1.02,VWS V14.01,2013-10-11 16:17:00,
2013-10-11 12:22:00,67.1,60.4,29.80,NW,318,0.0,4.9,79,0.16,,---,1.06,VWS V14.01,2013-10-11 16:22:00,
2013-10-11 12:27:00,67.3,60.9,29.80,North,357,3.6,4.9,80,0.16,,---,1.06,VWS V14.01,2013-10-11 16:27:00,
2013-10-11 12:32:00,67.5,61.1,29.80,NNW,333,0.0,3.1,80,0.16,,---,1.06,VWS V14.01,2013-10-11 16:32:00,
2013-10-11 12:37:00,67.6,61.6,29.80,SW,223,0.0,0.0,81,0.16,,---,1.06,VWS V14.01,2013-10-11 16:37:00,
2013-10-11 12:42:00,67.8,61.4,29.80,East,81,4.0,7.6,80,0.12,,---,1.06,VWS V14.01,2013-10-11 16:42:00,
2013-10-11 12:47:00,67.6,60.9,29.80,NE,52,3.1,3.1,79,0.08,,---,1.06,VWS V14.01,2013-10-11 16:47:00,
2013-10-11 12:52:00,67.6,60.2,29.80,WNW,294,5.8,5.8,77,0.08,,---,1.06,VWS V14.01,2013-10-11 16:52:00,
2013-10-11 12:57:00,67.6,60.9,29.80,WSW,254,0.0,3.6,79,0.04,,---,1.06,VWS V14.01,2013-10-11 16:57:00,
2013-10-11 13:02:00,67.6,60.9,29.80,NW,319,3.6,5.4,79,0.04,,---,1.06,VWS V14.01,2013-10-11 17:02:00,
2013-10-11 13:07:00,67.6,60.5,29.80,WSW,242,3.6,4.0,78,0.04,,---,1.06,VWS V14.01,2013-10-11 17:07:00,
2013-10-11 13:12:00,67.8,61.4,29.77,SW,224,3.6,4.9,80,0.04,,---,1.06,VWS V14.01,2013-10-11 17:12:00,
2013-10-11 13:17:00,67.8,61.1,29.77,North,0,2.7,3.6,79,0.04,,---,1.06,VWS V14.01,2013-10-11 17:17:00,
2013-10-11 13:22:00,67.8,60.3,29.77,NW,313,0.0,0.0,77,0.00,,---,1.06,VWS V14.01,2013-10-11 17:22:00,
2013-10-11 13:27:00,67.8,60.3,29.77,WSW,251,0.0,3.6,77,0.00,,---,1.06,VWS V14.01,2013-10-11 17:27:00,
2013-10-11 13:32:00,67.8,59.6,29.77,SW,228,2.7,4.9,75,0.00,,---,1.06,VWS V14.01,2013-10-11 17:32:00,
2013-10-11 13:37:00,67.8,60.0,29.77,NW,314,2.7,5.8,76,0.00,,---,1.06,VWS V14.01,2013-10-11 17:37:00,
2013-10-11 13:41:00,67.8,59.2,29.77,ENE,58,4.9,4.9,74,0.00,,---,1.06,VWS V14.01,2013-10-11 17:41:00,
2013-10-11 13:46:00,67.8,59.2,29.77,WSW,238,2.7,5.4,74,0.00,,---,1.06,VWS V14.01,2013-10-11 17:46:00,
2013-10-11 13:51:00,67.8,58.9,29.77,WNW,294,5.8,5.8,73,0.00,,---,1.06,VWS V14.01,2013-10-11 17:51:00,
2013-10-11 13:56:00,67.8,59.2,29.77,NW,323,3.1,4.0,74,0.00,,---,1.06,VWS V14.01,2013-10-11 17:56:00,
2013-10-11 14:01:00,67.6,58.7,29.77,SE,146,0.0,4.0,73,0.00,,---,1.06,VWS V14.01,2013-10-11 18:01:00,
2013-10-11 14:06:00,67.6,59.1,29.77,NNW,335,3.6,3.6,74,0.00,,---,1.06,VWS V14.01,2013-10-11 18:06:00,
2013-10-11 14:11:00,67.6,59.1,29.77,NW,320,0.0,3.6,74,0.00,,---,1.06,VWS V14.01,2013-10-11 18:11:00,
2013-10-11 14:16:00,67.5,58.1,29.77,SSE,152,0.0,4.0,72,0.00,,---,1.06,VWS V14.01,2013-10-11 18:16:00,
2013-10-11 14:21:00,67.3,58.0,29.77,WSW,258,4.0,5.8,72,0.00,,---,1.06,VWS V14.01,2013-10-11 18:21:00,
2013-10-11 14:27:00,67.3,58.0,29.77,WSW,251,3.6,4.9,72,0.00,,---,1.06,VWS V14.01,2013-10-11 18:27:00,
2013-10-11 14:31:00,67.3,58.7,29.77,SW,228,2.7,2.7,74,0.00,,---,1.06,VWS V14.01,2013-10-11 18:31:00,
2013-10-11 14:37:00,67.3,58.7,29.77,NW,314,0.0,4.0,74,0.00,,---,1.06,VWS V14.01,2013-10-11 18:37:00,
2013-10-11 14:42:00,67.3,58.3,29.77,NE,55,2.7,4.9,73,0.00,,---,1.06,VWS V14.01,2013-10-11 18:42:00,
2013-10-11 14:47:00,67.3,58.3,29.77,NW,304,0.0,2.7,73,0.00,,---,1.06,VWS V14.01,2013-10-11 18:47:00,
2013-10-11 14:52:00,67.1,58.2,29.77,NW,324,3.1,4.9,73,0.00,,---,1.06,VWS V14.01,2013-10-11 18:52:00,
2013-10-11 14:57:00,67.1,58.5,29.77,NNW,337,0.0,5.4,74,0.00,,---,1.06,VWS V14.01,2013-10-11 18:57:00,
2013-10-11 15:02:00,66.9,58.0,29.77,NW,317,6.3,6.3,73,0.00,,---,1.06,VWS V14.01,2013-10-11 19:02:00,
2013-10-11 15:07:00,66.9,57.6,29.77,WNW,301,3.1,5.8,72,0.00,,---,1.06,VWS V14.01,2013-10-11 19:07:00,
2013-10-11 15:12:00,66.7,57.4,29.77,NNW,343,4.0,4.0,72,0.00,,---,1.06,VWS V14.01,2013-10-11 19:12:00,
2013-10-11 15:17:00,66.9,58.4,29.77,NNE,26,0.0,3.1,74,0.00,,---,1.06,VWS V14.01,2013-10-11 19:17:00,
2013-10-11 15:22:00,66.9,58.8,29.77,West,281,0.0,2.7,75,0.04,,---,1.10,VWS V14.01,2013-10-11 19:22:00,
2013-10-11 15:27:00,66.7,58.9,29.77,North,0,3.1,4.0,76,0.04,,---,1.10,VWS V14.01,2013-10-11 19:27:00,
2013-10-11 15:32:00,66.7,59.3,29.77,West,281,2.7,2.7,77,0.04,,---,1.10,VWS V14.01,2013-10-11 19:32:00,
2013-10-11 15:37:00,66.7,58.9,29.77,WSW,247,5.4,5.4,76,0.04,,---,1.10,VWS V14.01,2013-10-11 19:37:00,
2013-10-11 15:42:00,66.7,58.9,29.77,NNE,12,0.0,0.0,76,0.04,,---,1.10,VWS V14.01,2013-10-11 19:42:00,
2013-10-11 15:47:00,66.7,59.3,29.77,West,259,2.2,5.8,77,0.04,,---,1.10,VWS V14.01,2013-10-11 19:47:00,
2013-10-11 15:52:00,66.6,59.1,29.77,NW,318,3.6,4.9,77,0.04,,---,1.10,VWS V14.01,2013-10-11 19:52:00,
2013-10-11 15:57:00,66.6,59.1,29.77,NW,321,3.1,3.1,77,0.04,,---,1.10,VWS V14.01,2013-10-11 19:57:00,
2013-10-11 16:02:00,66.6,59.5,29.77,NNW,345,7.2,7.2,78,0.04,,---,1.10,VWS V14.01,2013-10-11 20:02:00,
2013-10-11 16:07:00,66.6,59.1,29.77,NNE,28,0.0,5.8,77,0.04,,---,1.10,VWS V14.01,2013-10-11 20:07:00,
2013-10-11 16:12:00,66.6,59.1,29.77,NW,312,0.0,5.4,77,0.04,,---,1.10,VWS V14.01,2013-10-11 20:12:00,
2013-10-11 16:17:00,66.6,59.5,29.77,NNE,16,5.8,5.8,78,0.08,,---,1.14,VWS V14.01,2013-10-11 20:17:00,
2013-10-11 16:22:00,66.6,59.5,29.77,WSW,241,0.0,2.7,78,0.04,,---,1.14,VWS V14.01,2013-10-11 20:22:00,
2013-10-11 16:27:00,66.4,59.3,29.77,West,280,3.1,7.6,78,0.04,,---,1.14,VWS V14.01,2013-10-11 20:27:00,
2013-10-11 16:32:00,66.4,59.3,29.77,North,353,3.1,3.1,78,0.04,,---,1.14,VWS V14.01,2013-10-11 20:32:00,
2013-10-11 16:37:00,66.4,59.3,29.77,NE,49,2.2,3.6,78,0.04,,---,1.14,VWS V14.01,2013-10-11 20:37:00,
2013-10-11 16:42:00,66.4,59.0,29.77,NW,311,0.0,0.0,77,0.04,,---,1.14,VWS V14.01,2013-10-11 20:42:00,
2013-10-11 16:47:00,66.4,59.3,29.77,East,97,3.1,3.6,78,0.04,,---,1.14,VWS V14.01,2013-10-11 20:47:00,
2013-10-11 16:52:00,66.4,59.3,29.77,NW,323,0.0,2.2,78,0.04,,---,1.14,VWS V14.01,2013-10-11 20:52:00,
2013-10-11 16:57:00,66.4,59.7,29.80,NW,318,0.0,4.9,79,0.04,,---,1.14,VWS V14.01,2013-10-11 20:57:00,
2013-10-11 17:02:00,66.4,59.7,29.80,NNW,341,0.0,6.3,79,0.04,,---,1.14,VWS V14.01,2013-10-11 21:02:00,
2013-10-11 17:07:00,66.4,59.7,29.80,WSW,256,5.4,5.4,79,0.04,,---,1.14,VWS V14.01,2013-10-11 21:07:00,
2013-10-11 17:12:00,66.2,59.5,29.80,NW,315,0.0,0.0,79,0.04,,---,1.14,VWS V14.01,2013-10-11 21:12:00,
2013-10-11 17:17:00,66.2,59.5,29.80,NW,314,2.7,2.7,79,0.00,,---,1.14,VWS V14.01,2013-10-11 21:17:00,
2013-10-11 17:22:00,66.2,59.5,29.80,North,11,0.0,0.0,79,0.00,,---,1.14,VWS V14.01,2013-10-11 21:22:00,
2013-10-11 17:27:00,66.2,59.9,29.80,NNW,333,0.0,0.0,80,0.00,,---,1.14,VWS V14.01,2013-10-11 21:27:00,
2013-10-11 17:32:00,66.2,59.9,29.80,East,92,3.6,3.6,80,0.00,,---,1.14,VWS V14.01,2013-10-11 21:32:00,
2013-10-11 17:37:00,66.2,59.9,29.80,North,353,3.6,4.9,80,0.00,,---,1.14,VWS V14.01,2013-10-11 21:37:00,
2013-10-11 17:42:00,66.2,59.9,29.80,NE,36,5.4,5.4,80,0.00,,---,1.14,VWS V14.01,2013-10-11 21:42:00,
2013-10-11 17:47:00,66.2,59.9,29.80,NNW,336,4.0,4.0,80,0.00,,---,1.14,VWS V14.01,2013-10-11 21:47:00,
2013-10-11 17:52:00,66.2,59.9,29.80,South,172,0.0,3.1,80,0.04,,---,1.18,VWS V14.01,2013-10-11 21:52:00,
2013-10-11 17:57:00,66.2,60.2,29.80,NNE,27,2.7,5.8,81,0.04,,---,1.18,VWS V14.01,2013-10-11 21:57:00,
2013-10-11 18:02:00,66.2,60.2,29.80,SW,223,0.0,3.1,81,0.04,,---,1.18,VWS V14.01,2013-10-11 22:02:00,
2013-10-11 18:07:00,66.2,60.2,29.80,WNW,283,0.0,0.0,81,0.04,,---,1.18,VWS V14.01,2013-10-11 22:07:00,
2013-10-11 18:12:00,66.2,60.2,29.80,West,274,4.0,4.0,81,0.04,,---,1.18,VWS V14.01,2013-10-11 22:12:00,
2013-10-11 18:17:00,66.2,60.2,29.80,SE,135,4.0,4.0,81,0.04,,---,1.18,VWS V14.01,2013-10-11 22:17:00,
2013-10-11 18:22:00,66.2,60.2,29.80,North,1,3.6,4.0,81,0.04,,---,1.18,VWS V14.01,2013-10-11 22:22:00,
2013-10-11 18:27:00,66.2,60.2,29.80,NW,324,0.0,0.0,81,0.04,,---,1.18,VWS V14.01,2013-10-11 22:27:00,
2013-10-11 18:32:00,66.4,60.7,29.80,WNW,295,2.7,2.7,82,0.04,,---,1.18,VWS V14.01,2013-10-11 22:32:00,
2013-10-11 18:37:00,66.4,60.7,29.80,WNW,298,0.0,0.0,82,0.04,,---,1.18,VWS V14.01,2013-10-11 22:37:00,
2013-10-11 18:42:00,66.4,60.7,29.80,NE,38,4.9,4.9,82,0.04,,---,1.18,VWS V14.01,2013-10-11 22:42:00,
2013-10-11 18:47:00,66.4,60.7,29.80,West,265,5.8,5.8,82,0.04,,---,1.18,VWS V14.01,2013-10-11 22:47:00,
2013-10-11 18:52:00,66.4,61.1,29.80,NW,325,3.1,3.1,83,0.00,,---,1.18,VWS V14.01,2013-10-11 22:52:00,
2013-10-11 18:57:00,66.4,61.1,29.80,NW,307,2.2,5.8,83,0.00,,---,1.18,VWS V14.01,2013-10-11 22:57:00,
2013-10-11 19:02:00,66.4,61.1,29.80,NNE,21,3.1,3.1,83,0.00,,---,1.18,VWS V14.01,2013-10-11 23:02:00,
2013-10-11 19:07:00,66.4,61.1,29.80,North,7,0.0,5.4,83,0.00,,---,1.18,VWS V14.01,2013-10-11 23:07:00,
2013-10-11 19:12:00,66.4,61.1,29.80,SSE,157,3.1,3.1,83,0.00,,---,1.18,VWS V14.01,2013-10-11 23:12:00,
2013-10-11 19:17:00,66.4,61.1,29.80,NW,310,2.2,2.7,83,0.00,,---,1.18,VWS V14.01,2013-10-11 23:17:00,
2013-10-11 19:22:00,66.4,61.4,29.80,SSW,205,2.2,9.6,84,0.00,,---,1.18,VWS V14.01,2013-10-11 23:22:00,
2013-10-11 19:27:00,66.4,61.4,29.80,SSE,165,0.0,4.9,84,0.00,,---,1.18,VWS V14.01,2013-10-11 23:27:00,
2013-10-11 19:32:00,66.4,61.4,29.80,NNE,13,0.0,4.9,84,0.04,,---,1.22,VWS V14.01,2013-10-11 23:32:00,
2013-10-11 19:37:00,66.4,61.4,29.80,SSW,205,0.0,3.6,84,0.04,,---,1.22,VWS V14.01,2013-10-11 23:37:00,
2013-10-11 19:42:00,66.4,61.4,29.80,NE,46,2.2,2.7,84,0.04,,---,1.22,VWS V14.01,2013-10-11 23:42:00,
2013-10-11 19:47:00,66.4,61.4,29.80,WNW,298,6.3,8.1,84,0.04,,---,1.22,VWS V14.01,2013-10-11 23:47:00,
2013-10-11 19:52:00,66.4,61.4,29.83,ENE,75,0.0,3.6,84,0.04,,---,1.22,VWS V14.01,2013-10-11 23:52:00,
2013-10-11 19:57:00,66.4,61.7,29.83,WNW,302,3.1,3.1,85,0.04,,---,1.22,VWS V14.01,2013-10-11 23:57:00,
2013-10-11 20:02:00,66.4,61.7,29.83,WSW,252,2.2,3.1,85,0.04,,---,1.22,VWS V14.01,2013-10-12 00:02:00,
2013-10-11 20:07:00,66.4,61.7,29.83,WSW,246,0.0,4.0,85,0.04,,---,1.22,VWS V14.01,2013-10-12 00:07:00,
2013-10-11 20:12:00,66.4,61.7,29.83,NE,34,2.7,5.4,85,0.04,,---,1.22,VWS V14.01,2013-10-12 00:12:00,
2013-10-11 20:17:00,66.4,61.7,29.83,NNE,13,2.2,3.1,85,0.04,,---,1.22,VWS V14.01,2013-10-12 00:17:00,
2013-10-11 20:23:00,66.4,61.7,29.83,SW,225,3.1,3.1,85,0.04,,---,1.22,VWS V14.01,2013-10-12 00:23:00,
2013-10-11 20:28:00,66.4,61.7,29.83,WSW,247,5.4,5.4,85,0.08,,---,1.26,VWS V14.01,2013-10-12 00:28:00,
2013-10-11 20:33:00,66.4,61.7,29.83,NNW,328,3.6,5.4,85,0.04,,---,1.26,VWS V14.01,2013-10-12 00:33:00,
2013-10-11 20:38:00,66.4,61.7,29.83,ESE,103,2.7,2.7,85,0.04,,---,1.26,VWS V14.01,2013-10-12 00:38:00,
2013-10-11 20:43:00,66.4,61.7,29.83,NW,310,2.2,5.4,85,0.04,,---,1.26,VWS V14.01,2013-10-12 00:43:00,
2013-10-11 20:48:00,66.4,61.7,29.83,WNW,291,3.1,5.8,85,0.04,,---,1.26,VWS V14.01,2013-10-12 00:48:00,
2013-10-11 20:53:00,66.4,61.7,29.83,WNW,297,3.6,4.0,85,0.08,,---,1.30,VWS V14.01,2013-10-12 00:53:00,
2013-10-11 20:58:00,66.4,61.7,29.83,SSE,160,6.3,6.3,85,0.08,,---,1.30,VWS V14.01,2013-10-12 00:58:00,
2013-10-11 21:03:00,66.4,61.7,29.83,WNW,298,0.0,2.7,85,0.08,,---,1.30,VWS V14.01,2013-10-12 01:03:00,
2013-10-11 21:08:00,66.2,61.6,29.83,NW,317,3.1,7.6,85,0.08,,---,1.30,VWS V14.01,2013-10-12 01:08:00,
2013-10-11 21:13:00,66.2,61.6,29.83,West,277,2.7,3.1,85,0.08,,---,1.30,VWS V14.01,2013-10-12 01:13:00,
2013-10-11 21:18:00,66.2,61.6,29.83,NNE,18,6.3,6.3,85,0.08,,---,1.30,VWS V14.01,2013-10-12 01:18:00,
2013-10-11 21:23:00,66.2,61.6,29.83,WSW,252,0.0,0.0,85,0.08,,---,1.30,VWS V14.01,2013-10-12 01:23:00,
2013-10-11 21:28:00,66.0,61.4,29.83,WSW,252,5.4,10.1,85,0.04,,---,1.30,VWS V14.01,2013-10-12 01:28:00,
2013-10-11 21:33:00,66.0,61.0,29.83,SW,223,0.0,0.0,84,0.04,,---,1.30,VWS V14.01,2013-10-12 01:33:00,
2013-10-11 21:38:00,66.0,61.0,29.83,WSW,246,3.1,3.1,84,0.04,,---,1.30,VWS V14.01,2013-10-12 01:38:00,
2013-10-11 21:43:00,66.0,60.7,29.83,WNW,290,0.0,0.0,83,0.04,,---,1.30,VWS V14.01,2013-10-12 01:43:00,
2013-10-11 21:48:00,66.0,60.7,29.83,NE,35,0.0,0.0,83,0.04,,---,1.30,VWS V14.01,2013-10-12 01:48:00,
2013-10-11 21:53:00,65.8,60.5,29.85,NW,316,5.8,5.8,83,0.00,,---,1.30,VWS V14.01,2013-10-12 01:53:00,
2013-10-11 21:58:00,65.8,60.2,29.85,North,9,0.0,5.8,82,0.00,,---,1.30,VWS V14.01,2013-10-12 01:58:00,
2013-10-11 22:03:00,65.8,60.2,29.85,NNE,20,2.7,2.7,82,0.00,,---,1.30,VWS V14.01,2013-10-12 02:03:00,
2013-10-11 22:08:00,65.7,59.7,29.85,NW,311,3.1,3.1,81,0.00,,---,1.30,VWS V14.01,2013-10-12 02:08:00,
2013-10-11 22:13:00,65.7,59.7,29.85,WNW,301,2.7,3.1,81,0.00,,---,1.30,VWS V14.01,2013-10-12 02:13:00,
2013-10-11 22:18:00,65.7,59.7,29.85,WSW,257,0.0,0.0,81,0.00,,---,1.30,VWS V14.01,2013-10-12 02:18:00,
2013-10-11 22:23:00,65.5,59.5,29.85,NW,317,2.2,2.2,81,0.04,,---,1.34,VWS V14.01,2013-10-12 02:23:00,
2013-10-11 22:28:00,65.5,59.5,29.85,SW,235,2.7,2.7,81,0.04,,---,1.34,VWS V14.01,2013-10-12 02:28:00,
2013-10-11 22:33:00,65.5,59.5,29.85,NNE,30,5.4,5.4,81,0.04,,---,1.34,VWS V14.01,2013-10-12 02:33:00,
2013-10-11 22:38:00,65.5,59.5,29.85,WNW,288,0.0,0.0,81,0.04,,---,1.34,VWS V14.01,2013-10-12 02:38:00,
2013-10-11 22:43:00,65.5,59.5,29.85,NNW,335,0.0,0.0,81,0.04,,---,1.34,VWS V14.01,2013-10-12 02:43:00,
2013-10-11 22:48:00,65.5,59.2,29.85,North,6,0.0,0.0,80,0.04,,---,1.34,VWS V14.01,2013-10-12 02:48:00,
2013-10-11 22:53:00,65.5,59.2,29.85,NNW,345,4.9,4.9,80,0.04,,---,1.34,VWS V14.01,2013-10-12 02:53:00,
2013-10-11 22:58:00,65.5,59.2,29.85,NW,312,4.0,4.0,80,0.04,,---,1.34,VWS V14.01,2013-10-12 02:58:00,
2013-10-11 23:03:00,65.5,59.2,29.85,SW,225,6.3,6.3,80,0.04,,---,1.34,VWS V14.01,2013-10-12 03:03:00,
2013-10-11 23:08:00,65.5,59.2,29.85,SE,135,2.2,2.7,80,0.04,,---,1.34,VWS V14.01,2013-10-12 03:08:00,
2013-10-11 23:13:00,65.5,59.2,29.85,WNW,302,4.0,4.9,80,0.04,,---,1.34,VWS V14.01,2013-10-12 03:13:00,
2013-10-11 23:18:00,65.3,58.6,29.85,West,275,0.0,0.0,79,0.04,,---,1.34,VWS V14.01,2013-10-12 03:18:00,
2013-10-11 23:23:00,65.5,58.8,29.85,WNW,291,0.0,0.0,79,0.00,,---,1.34,VWS V14.01,2013-10-12 03:23:00,
2013-10-11 23:28:00,65.3,59.0,29.85,North,353,3.1,4.9,80,0.00,,---,1.34,VWS V14.01,2013-10-12 03:28:00,
2013-10-11 23:33:00,65.3,59.0,29.85,WNW,293,0.0,0.0,80,0.00,,---,1.34,VWS V14.01,2013-10-12 03:33:00,
2013-10-11 23:38:00,65.3,59.0,29.85,NNE,32,3.1,3.1,80,0.00,,---,1.34,VWS V14.01,2013-10-12 03:38:00,
2013-10-11 23:43:00,65.3,58.6,29.85,WNW,298,5.4,5.4,79,0.00,,---,1.34,VWS V14.01,2013-10-12 03:43:00,
2013-10-11 23:48:00,65.3,58.6,29.85,SW,233,5.8,5.8,79,0.00,,---,1.34,VWS V14.01,2013-10-12 03:48:00,
2013-10-11 23:53:00,65.3,58.3,29.85,NW,325,5.4,5.4,78,0.00,,---,1.34,VWS V14.01,2013-10-12 03:53:00,
2013-10-11 23:58:00,65.1,57.7,29.85,NE,47,0.0,3.1,77,0.00,,---,1.34,VWS V14.01,2013-10-12 03:58:00,